Weather History for Auburn-Lewiston, ME

Change the Weather History Date:

Thursday, June 5, 2014

  Actual Average Record
Temperature  
Mean Temperature 56 °F -  
Max Temperature 60 °F 67 °F 84 °F (2005)
Min Temperature 51 °F 45 °F 35 °F (1997)
Degree Days  
Heating Degree Days 10    
Growing Degree Days 6 (Base 50)    
Moisture  
Dew Point 53 °F    
Average Humidity 90    
Maximum Humidity 94    
Minimum Humidity 82    
Precipitation  
Precipitation 0.03 in - - ()
Sea Level Pressure  
Sea Level Pressure 29.74 in    
Wind  
Wind Speed 2 mph (NE)    
Max Wind Speed 8 mph    
Max Gust Speed -    
Visibility 8 miles    
Events      
Averages and records for this station are not official NWS values.
T = Trace of Precipitation, MM = Missing Value Source: NWS Daily Summary

Daily Weather History Graph

Daily Weather History Graph

Search for Another Location

Airport:

Trip Planner

Search our weather history database for the weather conditions in past years. The results will help you decide how hot, cold, wet, or windy it might be!

Date:

Astronomy

Jun. 05, 2014 Rise Set
Actual Time 4:59 AM EDT 8:20 PM EDT
Civil Twilight 4:23 AM EDT 8:56 PM EDT
Nautical Twilight 3:37 AM EDT 9:42 PM EDT
Astronomical Twilight 2:39 AM EDT 10:41 PM EDT
Moon 12:24 PM EDT (6/5) 12:36 AM EDT (6/5)
Length of Visible Light 16h 32m
Length of Day
15h 20m
Waxing Crescent, 48% of the Moon is Illuminated
Jun 5
Waxing Crescent
Jun 5
First Quarter
Jun 13
Full
Jun 19
Last Quarter
Jun 27
New

Hourly Weather History & Observations

Time (EDT) Temp. Dew Point Humidity Pressure Visibility Wind Dir Wind Speed Gust Speed Precip Events Conditions
12:15 AM 51.8 °F 50.0 °F 94% 29.80 in 2.0 mi SE 3.5 mph - N/A   Overcast
12:35 AM 51.8 °F 48.2 °F 88% 29.81 in 9.0 mi South 3.5 mph - N/A   Overcast
12:55 AM 51.8 °F 50.0 °F 94% 29.80 in 10.0 mi Calm Calm - N/A   Overcast
1:15 AM 51.8 °F 50.0 °F 94% 29.80 in 10.0 mi Calm Calm - N/A   Overcast
1:35 AM 51.8 °F 50.0 °F 94% 29.80 in 10.0 mi Calm Calm - N/A   Overcast
1:55 AM 51.8 °F 50.0 °F 94% 29.79 in 10.0 mi Calm Calm - N/A   Overcast
2:15 AM 51.8 °F 48.2 °F 88% 29.79 in 3.0 mi SSE 3.5 mph - N/A   Overcast
2:35 AM 51.8 °F 48.2 °F 88% 29.78 in 1.2 mi SE 3.5 mph - N/A   Overcast
2:55 AM 51.8 °F 48.2 °F 88% 29.78 in 9.0 mi Calm Calm - N/A   Overcast
3:15 AM 51.8 °F 48.2 °F 88% 29.77 in 10.0 mi Calm Calm - N/A   Overcast
3:35 AM 51.8 °F 50.0 °F 94% 29.76 in 5.0 mi Calm Calm - N/A   Overcast
3:55 AM 51.8 °F 50.0 °F 94% 29.76 in 7.0 mi Calm Calm - N/A   Overcast
4:15 AM 51.8 °F 50.0 °F 94% 29.76 in 4.0 mi Calm Calm - N/A   Overcast
4:35 AM 51.8 °F 50.0 °F 94% 29.76 in 2.0 mi Calm Calm - N/A   Overcast
4:55 AM 53.6 °F 50.0 °F 88% 29.76 in 1.2 mi ESE 3.5 mph - N/A   Overcast
5:15 AM 51.8 °F 50.0 °F 94% 29.76 in 0.5 mi SE 4.6 mph - N/A   Overcast
5:35 AM 51.8 °F 50.0 °F 94% 29.77 in 0.8 mi Calm Calm - N/A   Overcast
5:55 AM 51.8 °F 50.0 °F 94% 29.77 in 0.5 mi Calm Calm - N/A   Overcast
6:15 AM 51.8 °F 50.0 °F 94% 29.77 in 0.5 mi East 3.5 mph - N/A   Overcast
6:35 AM 53.6 °F 50.0 °F 88% 29.77 in 0.5 mi Calm Calm - N/A   Overcast
6:55 AM 53.6 °F 50.0 °F 88% 29.78 in 0.2 mi East 4.6 mph - N/A   Overcast
7:15 AM 53.6 °F 51.8 °F 94% 29.78 in 3.0 mi Calm Calm - N/A   Overcast
7:35 AM 53.6 °F 51.8 °F 94% 29.79 in 3.0 mi Calm Calm - N/A   Overcast
7:55 AM 53.6 °F 51.8 °F 94% 29.79 in 10.0 mi Calm Calm - N/A   Overcast
8:15 AM 55.4 °F 51.8 °F 88% 29.79 in 10.0 mi Calm Calm - N/A   Overcast
8:35 AM 55.4 °F 53.6 °F 94% 29.78 in 10.0 mi ESE 3.5 mph - N/A   Overcast
8:55 AM 55.4 °F 51.8 °F 88% 29.78 in 10.0 mi South 3.5 mph - N/A   Overcast
9:15 AM 55.4 °F 53.6 °F 94% 29.78 in 8.0 mi East 3.5 mph - N/A   Overcast
9:35 AM 55.4 °F 53.6 °F 94% 29.77 in 9.0 mi ENE 3.5 mph - N/A   Overcast
9:55 AM 57.2 °F 53.6 °F 88% 29.77 in 6.0 mi ENE 3.5 mph - N/A   Overcast
10:15 AM 55.4 °F 53.6 °F 94% 29.76 in 2.0 mi NE 4.6 mph - N/A   Overcast
10:35 AM 57.2 °F 53.6 °F 88% 29.77 in 2.5 mi Calm Calm - N/A   Overcast
10:55 AM 57.2 °F 53.6 °F 88% 29.77 in 1.8 mi Calm Calm - N/A   Overcast
11:15 AM 57.2 °F 53.6 °F 88% 29.77 in 2.0 mi Calm Calm - N/A   Overcast
11:35 AM 57.2 °F 55.4 °F 94% 29.76 in 9.0 mi Calm Calm - N/A   Overcast
11:55 AM 59.0 °F 55.4 °F 88% 29.76 in 10.0 mi ESE 4.6 mph - N/A   Overcast
12:15 PM 57.2 °F 55.4 °F 94% 29.76 in 7.0 mi Calm Calm - N/A   Overcast
12:35 PM 59.0 °F 55.4 °F 88% 29.77 in 8.0 mi Calm Calm - N/A   Overcast
12:55 PM 59.0 °F 55.4 °F 88% 29.76 in 9.0 mi ESE 3.5 mph - N/A   Overcast
1:15 PM 59.0 °F 55.4 °F 88% 29.76 in 9.0 mi Calm Calm - N/A   Overcast
1:35 PM 59.0 °F 55.4 °F 88% 29.76 in 10.0 mi Calm Calm - N/A   Overcast
1:55 PM 59.0 °F 55.4 °F 88% 29.75 in 10.0 mi NE 3.5 mph - N/A   Overcast
2:15 PM 59.0 °F 55.4 °F 88% 29.75 in 10.0 mi NNE 3.5 mph - N/A   Overcast
2:35 PM 59.0 °F 55.4 °F 88% 29.74 in 10.0 mi Calm Calm - 0.01 in   Overcast
2:55 PM 60.8 °F 55.4 °F 82% 29.74 in 10.0 mi ENE 3.5 mph - 0.01 in   Overcast
3:15 PM 60.8 °F 55.4 °F 82% 29.72 in 10.0 mi NE 3.5 mph - 0.01 in   Overcast
3:35 PM 60.8 °F 57.2 °F 88% 29.72 in 10.0 mi ENE 3.5 mph - 0.01 in   Overcast
3:55 PM 60.8 °F 57.2 °F 88% 29.71 in 10.0 mi NE 4.6 mph - 0.02 in   Overcast
4:15 PM 60.8 °F 57.2 °F 88% 29.73 in 10.0 mi North 3.5 mph - N/A   Overcast
4:35 PM 60.8 °F 57.2 °F 88% 29.71 in 10.0 mi NNE 5.8 mph - N/A   Overcast
4:55 PM 60.8 °F 57.2 °F 88% 29.70 in 10.0 mi NE 5.8 mph - N/A   Overcast
5:15 PM 60.8 °F 57.2 °F 88% 29.69 in 10.0 mi NE 5.8 mph - N/A   Overcast
5:35 PM 60.8 °F 57.2 °F 88% 29.69 in 10.0 mi North 5.8 mph - N/A   Overcast
5:55 PM 60.8 °F 57.2 °F 88% 29.69 in 10.0 mi North 5.8 mph - N/A   Overcast
6:15 PM 60.8 °F 57.2 °F 88% 29.70 in 10.0 mi North 4.6 mph - N/A   Overcast
6:35 PM 60.8 °F 57.2 °F 88% 29.69 in 10.0 mi North 6.9 mph - N/A   Overcast
6:55 PM 60.8 °F 57.2 °F 88% 29.68 in 10.0 mi North 8.1 mph - N/A   Overcast
7:15 PM 60.8 °F 57.2 °F 88% 29.68 in 10.0 mi North 8.1 mph - N/A   Overcast
7:35 PM 60.8 °F 57.2 °F 88% 29.68 in 10.0 mi NNE 6.9 mph - N/A   Mostly Cloudy
7:55 PM 60.8 °F 57.2 °F 88% 29.68 in 10.0 mi NNW 5.8 mph - N/A   Mostly Cloudy
8:15 PM 60.8 °F 57.2 °F 88% 29.68 in 9.0 mi North 5.8 mph - N/A   Overcast
8:35 PM 60.8 °F 55.4 °F 82% 29.68 in 10.0 mi North 4.6 mph - N/A   Overcast
8:55 PM 60.8 °F 55.4 °F 82% 29.68 in 10.0 mi NNW 4.6 mph - N/A   Overcast
9:15 PM 59.0 °F 55.4 °F 88% 29.68 in 10.0 mi NNW 4.6 mph - N/A   Overcast
9:35 PM 59.0 °F 55.4 °F 88% 29.68 in 10.0 mi NNW 5.8 mph - N/A   Mostly Cloudy
9:55 PM 57.2 °F 55.4 °F 94% 29.67 in 10.0 mi NNW 4.6 mph - N/A   Mostly Cloudy
10:15 PM 57.2 °F 53.6 °F 88% 29.67 in 10.0 mi NNW 4.6 mph - N/A   Partly Cloudy
10:35 PM 55.4 °F 53.6 °F 94% 29.67 in 10.0 mi North 3.5 mph - N/A   Clear
10:55 PM 55.4 °F 53.6 °F 94% 29.67 in 10.0 mi NNW 4.6 mph - N/A   Clear
11:15 PM 55.4 °F 53.6 °F 94% 29.68 in 10.0 mi North 3.5 mph - N/A   Clear
11:35 PM 55.4 °F 51.8 °F 88% 29.67 in 10.0 mi Calm Calm - N/A   Clear
11:55 PM 55.4 °F 51.8 °F 88% 29.67 in 10.0 mi Calm Calm - N/A   Clear